Location: Burgwalden
(48.2830°N, 10.7576°E)
Time: 22:20:48
(UTC+00:00)

Timation 1 Rocket - Pass Details

Date: 26 September 2023
Orbit: 895 x 910 km, 70.0° (Epoch: 09 December)

Event Time Altitude Azimuth Distance (km) Brightness Sun altitude
Exits shadow 04:00:37 - 216° (SW) 2,882 6.5 -12.1°
Reaches altitude 10° 04:01:29 10° 217° (SW) 2,562 6.3 -11.9°
Maximum altitude 04:07:23 71° 302° (WNW) 948 4.3 -11.0°
Drops below altitude 10° 04:13:21 10° 27° (NNE) 2,584 7.3 -10.0°
Sets 04:15:53 0° 29° (NNE) 3,530 8.0 -9.6°
